Dewpoint
16 15 18 18 18 19 19 18 17 15 15 13 12 11 9 9 8 9 12 12 13 12 9 10 13 12 14 15 18 20 22 22 22 24 22 17 17 24 20 25 25 28 28 31 35 38 41 48 47 49 50 54 61 65 66 67 67 67 67 68 68 68 69 67 67 66 65 65 65 66 64 63 63 63 63 62 63 62 62 62 61 62 62 63 64 63
21 20 23 21 21 22 21 21 21 18 17 14 12 11 10 10 10 10 13 13 13 14 13 15 14 16 16 16 19 19 22 21 22 25 25 26 27 26 27 28 30 29 30 31 33 37 40 37 46 47 47 48 56 63 66 66 66 67 68 68 68 68 68 67 67 67 66 66 64 64 63 63 63 63 62 62 63 63 62 63 63 62 62 62 63 64
25 21 23 23 24 24 23 21 20 18 16 16 13 11 11 12 14 15 15 15 16 17 16 16 16 15 16 17 20 21 21 23 25 28 28 28 27 26 24 27 28 27 29 29 33 37 35 39 40 45 48 47 46 56 65 67 67 67 67 68 68 68 68 68 68 67 67 67 66 65 65 64 63 64 64 63 63 64 62 64 64 63 63 62 61 63
26 24 24 24 24 23 23 22 22 21 19 16 16 17 15 16 15 15 15 19 19 19 17 18 16 15 18 21 21 19 17 21 26 20 24 29 26 27 28 27 31 29 30 33 34 35 35 38 40 44 46 49 49 52 59 65 65 65 66 67 67 68 69 69 68 67 68 68 67 67 66 66 65 64 65 66 65 64 64 64 64 63 63 62 61 61
20 23 25 23 23 23 21 22 21 20 20 19 20 17 16 16 17 17 16 19 20 19 19 19 17 13 18 17 15 21 19 14 16 17 24 26 28 29 32 32 33 32 33 33 33 36 36 38 40 42 44 47 47 48 54 61 65 65 66 67 68 68 68 68 68 68 69 69 67 67 67 67 66 66 65 65 63 63 64 63 63 63 62 62 60 61
23 25 25 24 23 21 22 21 20 18 15 18 17 19 19 18 18 19 19 19 18 19 19 18 12 17 22 19 17 19 18 18 19 23 25 27 29 29 33 36 36 34 36 36 36 35 36 39 41 44 45 47 48 47 47 55 62 66 65 66 67 69 68 68 68 68 68 68 68 66 65 65 65 64 63 63 63 63 63 62 63 62 61 61 61 61
23 25 24 23 22 22 20 20 22 21 20 19 19 21 21 20 20 20 19 19 19 17 17 17 14 12 18 17 19 20 17 19 22 25 27 28 29 29 33 35 35 35 36 38 38 37 40 42 43 45 47 48 48 49 50 50 53 62 66 66 66 67 68 68 69 68 67 67 67 67 65 65 64 63 64 64 65 64 63 64 63 62 64 61 62 62
26 25 25 25 24 20 22 22 23 23 20 17 24 23 22 22 21 21 20 20 19 20 18 18 17 16 13 18 19 17 18 19 23 25 28 28 30 30 33 35 36 34 37 36 38 40 42 44 45 47 48 48 49 52 51 52 52 56 65 66 66 67 67 68 68 69 67 66 67 67 66 66 65 64 64 65 65 65 65 64 65 64 63 62 62 63
28 24 25 25 25 23 23 25 26 24 21 21 24 25 24 23 22 22 21 20 19 20 16 17 16 16 16 19 18 18 18 20 24 26 27 29 30 32 33 34 33 35 36 37 38 40 42 44 45 47 47 49 50 51 53 53 53 54 61 65 66 66 67 68 68 68 68 67 67 66 66 66 65 65 65 66 65 65 65 65 64 65 63 63 63 62
26 27 26 27 25 24 26 27 26 25 24 23 26 26 25 24 23 22 20 19 20 20 18 16 13 12 12 16 15 21 21 23 26 27 28 30 31 30 33 34 35 34 34 34 36 39 42 44 46 48 48 49 50 52 52 53 54 54 57 63 65 66 66 67 68 67 68 68 67 67 66 66 65 66 65 66 65 65 66 65 65 65 65 64 63 64
27 32 32 27 27 28 28 28 26 26 26 27 27 22 20 18 20 21 21 19 20 17 17 14 14 13 12 17 20 23 23 25 26 27 28 30 31 32 35 35 35 34 35 35 36 39 43 45 47 47 49 50 51 52 52 52 53 54 55 60 64 65 66 66 67 68 68 67 67 67 66 66 66 66 66 65 66 65 66 65 65 65 65 65 64 65
27 27 29 27 30 29 29 26 26 27 27 26 22 21 20 22 23 21 21 19 17 14 15 15 14 16 15 18 23 26 25 25 27 28 29 31 33 34 37 35 35 35 36 37 37 39 44 45 47 48 49 50 51 52 52 52 52 53 55 56 62 65 66 67 66 67 67 67 66 67 67 66 66 66 66 65 65 65 64 65 64 65 65 66 65 65
24 25 27 27 31 29 28 26 27 27 24 23 23 22 21 18 16 15 19 17 18 14 17 16 17 17 19 24 23 26 26 26 29 29 31 32 33 36 35 36 37 36 37 38 38 40 43 44 46 48 49 50 51 51 52 52 52 52 53 56 57 63 65 66 66 67 67 67 67 67 67 67 67 66 66 65 65 65 64 64 65 65 64 65 66 66
22 26 25 28 29 30 29 27 27 24 25 24 23 23 20 16 16 14 14 17 15 19 16 17 20 18 20 21 25 26 25 25 29 32 33 33 33 34 36 36 36 37 37 37 39 40 43 45 46 48 48 48 49 51 52 52 52 51 51 54 57 58 65 66 66 66 66 68 67 68 67 67 66 66 66 66 64 65 65 65 65 66 64 64 65 66
18 24 25 25 28 29 28 29 29 29 27 24 25 19 22 20 15 18 15 15 17 15 16 18 19 19 17 24 25 27 29 30 30 30 34 35 32 34 33 35 36 37 38 37 38 41 43 46 47 48 49 49 49 51 51 52 52 52 50 51 55 58 60 65 66 66 66 67 67 68 68 67 67 66 67 66 67 67 66 65 65 66 66 66 65 65
21 22 26 28 29 30 29 30 31 29 29 26 26 24 25 22 24 21 23 21 22 19 19 19 20 21 21 25 29 31 29 30 31 32 33 34 33 33 30 31 34 35 36 38 40 42 44 45 46 47 48 48 48 50 50 51 52 53 52 52 53 58 60 63 65 66 66 66 67 67 68 68 68 67 67 66 67 66 66 66 65 66 66 67 66 66
22 22 25 28 30 29 31 31 31 30 23 25 24 22 26 29 25 24 26 30 29 25 14 22 21 20 22 24 29 29 29 30 30 30 32 33 34 35 33 33 35 37 37 40 41 40 43 43 45 45 46 47 48 48 49 51 52 53 53 51 52 55 60 61 64 66 66 66 67 67 68 67 68 67 67 66 67 67 68 68 67 66 66 67 68 67
25 25 25 24 24 30 31 32 32 31 30 26 23 26 30 29 29 25 18 22 20 14 19 19 17 16 16 21 28 29 30 31 30 31 32 34 33 32 33 35 36 37 38 39 40 40 41 42 43 43 44 46 47 49 50 51 53 53 53 52 51 53 60 61 62 64 66 65 66 67 67 67 68 67 66 67 67 67 68 69 68 68 67 67 67 68
27 25 24 24 26 30 31 31 31 33 32 26 27 30 30 26 25 26 25 19 19 17 15 16 17 20 20 24 27 29 30 32 32 32 33 32 33 31 32 34 36 37 38 39 39 40 40 40 40 42 45 44 46 48 49 50 52 53 54 51 52 52 56 62 62 64 65 65 66 66 67 66 66 67 67 67 67 68 67 67 68 68 67 67 67 67
33 26 24 26 25 28 29 29 26 29 33 31 32 30 30 31 26 25 25 23 25 15 17 15 16 17 24 29 30 30 32 32 33 33 34 34 34 32 32 33 35 37 39 38 39 39 40 41 41 41 44 43 44 45 48 51 51 52 53 53 51 53 54 60 61 62 64 65 65 66 66 66 66 66 66 67 67 67 67 66 67 68 68 68 67 67
28 34 22 30 28 27 28 30 28 29 30 30 27 27 29 30 32 29 29 23 18 17 17 18 18 18 29 31 30 31 32 33 35 34 34 35 35 34 34 35 37 38 38 38 39 39 40 41 42 42 43 43 44 45 48 49 50 51 52 52 52 52 53 55 63 62 62 63 66 66 66 67 67 67 66 68 68 68 67 67 67 67 68 67 67 66
28 30 25 27 25 24 29 30 31 33 31 31 30 28 28 29 29 25 23 25 22 19 20 19 19 22 31 34 34 32 33 34 35 35 35 35 35 36 35 37 38 38 39 39 39 40 39 40 41 41 41 43 44 45 46 47 48 48 50 51 52 51 52 52 56 62 62 63 65 67 67 67 67 67 67 68 68 66 66 66 67 67 68 68 67 67
36 33 31 25 24 27 30 32 34 37 35 31 32 30 31 31 31 27 17 21 22 18 22 22 21 23 33 34 34 34 35 34 34 37 37 37 37 36 35 35 38 41 40 40 39 39 40 40 41 40 41 43 42 44 47 48 48 49 50 52 52 51 52 52 53 62 62 61 64 67 67 67 67 66 67 68 68 67 67 68 67 67 66 66 66 65
37 33 27 26 25 32 32 33 35 38 33 33 34 33 32 30 30 30 28 31 24 23 19 16 20 21 33 37 37 36 34 32 34 34 35 36 38 36 35 36 37 40 41 40 39 39 40 40 40 39 40 40 40 43 45 47 47 48 49 49 51 52 52 52 52 56 63 60 59 64 66 67 67 67 67 67 67 66 67 67 67 67 67 66 66 65
32 32 29 24 21 29 31 32 32 33 35 32 31 32 32 32 33 34 33 34 24 25 25 20 16 14 30 33 33 31 32 35 33 33 35 36 37 35 34 35 36 38 39 40 40 39 39 39 39 39 39 40 41 42 44 45 46 47 48 49 50 52 53 52 52 54 62 64 62 60 66 67 66 66 66 67 67 67 67 68 68 67 65 65 66 65
33 32 28 23 20 19 18 18 20 25 31 33 34 32 32 31 34 33 29 30 22 28 27 22 19 21 29 30 30 32 33 33 35 35 35 36 37 34 34 35 37 37 39 41 40 38 40 39 39 39 40 40 41 41 43 44 45 46 47 48 52 52 53 53 53 54 58 63 64 63 63 65 66 66 67 67 67 67 67 67 66 65 66 64 64 65
36 36 32 28 25 23 25 28 32 34 34 30 33 32 32 31 32 35 34 27 22 25 22 24 25 26 29 26 27 31 33 33 33 35 34 36 36 34 34 35 36 36 36 39 40 38 39 40 40 40 41 41 42 43 43 44 45 45 48 50 51 51 53 54 55 55 56 63 64 63 64 65 66 67 67 67 67 67 66 65 66 66 65 65 65 65
35 31 35 33 34 30 31 31 34 35 33 33 33 33 32 33 33 34 30 24 32 27 21 28 28 28 29 27 28 31 33 35 37 35 34 34 35 34 34 35 37 35 35 36 37 38 42 41 40 40 41 41 41 42 43 43 45 46 48 50 50 51 54 54 55 55 55 60 62 61 62 63 64 66 66 66 66 67 67 66 65 65 66 66 65 65
35 28 33 34 34 33 33 33 35 36 35 35 34 34 34 35 34 33 33 33 32 28 21 29 33 29 29 29 30 32 35 37 35 35 34 35 35 34 34 34 34 34 34 34 37 40 43 40 40 40 40 41 41 42 43 43 44 46 47 49 50 51 53 54 55 55 55 57 62 61 62 63 63 64 63 65 66 66 67 66 65 66 66 66 65 65
34 27 35 33 33 33 35 36 36 35 35 35 34 34 34 34 34 34 34 34 34 34 33 33 34 30 29 29 32 34 37 37 34 33 33 33 35 36 33 34 34 34 33 34 37 41 42 41 40 40 40 41 41 41 41 42 43 44 46 49 50 52 53 54 55 55 55 57 61 62 62 62 61 62 63 64 65 64 65 66 67 67 66 65 66 66
33 26 36 34 29 30 35 36 35 35 32 33 32 33 33 33 34 34 34 34 35 34 35 35 35 31 29 34 34 35 35 33 31 32 33 35 35 36 34 33 33 34 34 34 38 40 42 42 42 40 40 40 41 41 41 42 43 43 45 47 49 51 53 53 54 55 55 55 58 62 62 61 62 62 62 62 65 65 65 65 64 65 65 65 64 64
37 29 33 33 28 27 32 33 34 34 32 31 31 34 34 33 33 34 31 34 33 32 32 32 29 27 30 33 34 35 35 33 32 33 35 36 35 37 35 32 33 35 35 35 38 40 41 42 42 41 41 40 41 41 41 41 42 42 44 46 48 50 52 54 54 54 54 54 55 56 59 59 61 63 62 62 63 64 65 66 66 65 65 65 65 65
32 29 27 26 26 25 34 32 32 32 31 27 28 33 35 35 35 35 31 32 34 35 33 29 25 29 33 34 33 33 34 33 33 34 36 36 38 37 36 34 35 35 35 36 38 39 41 42 43 43 42 40 40 40 40 41 41 42 43 45 48 49 51 52 53 54 54 54 54 52 59 61 62 61 60 62 63 62 65 64 65 65 65 65 65 66
31 31 28 31 26 23 26 31 32 27 20 17 34 38 34 36 36 32 29 30 34 37 33 34 33 35 35 34 34 33 34 35 35 37 37 39 39 37 37 35 34 35 36 36 38 39 40 42 44 44 43 41 41 40 40 41 41 42 43 45 47 49 51 51 52 52 53 54 53 53 53 60 59 58 59 60 61 61 62 62 62 64 64 63 65 66
33 32 27 34 28 24 27 29 23 20 19 35 37 36 33 34 33 33 35 33 36 37 38 35 35 36 35 35 35 36 36 36 38 36 36 37 37 38 37 36 36 36 36 36 38 39 40 41 43 42 42 42 41 40 40 39 40 41 42 44 46 48 49 49 50 52 53 54 55 56 56 56 60 59 59 60 61 61 60 62 63 63 62 64 66 64
29 29 29 28 28 26 24 25 20 14 31 34 34 38 39 36 34 35 34 34 35 36 37 36 35 36 35 34 33 34 35 36 34 33 36 36 38 38 38 37 36 36 36 37 38 38 39 40 41 41 41 44 41 40 39 39 40 40 41 43 44 46 47 48 49 49 51 51 52 52 53 55 56 58 59 59 61 61 61 61 62 63 66 66 66 66
33 31 30 26 31 25 22 21 21 26 26 28 33 35 34 31 34 34 26 28 37 37 37 36 35 35 34 33 33 34 35 34 33 31 36 38 38 39 39 40 38 37 37 37 40 40 39 39 40 41 42 41 41 40 39 39 40 40 41 42 43 43 45 46 47 47 48 48 49 50 51 52 53 56 57 59 61 61 62 63 63 64 65 64 64 64
32 30 34 27 27 29 25 21 20 19 18 21 32 36 38 39 38 38 35 30 35 37 37 35 35 34 34 33 33 35 36 29 29 26 35 38 39 39 39 39 37 38 37 38 39 39 39 39 39 41 41 40 39 40 39 39 40 39 41 41 42 42 43 44 45 45 46 46 47 48 49 50 51 53 56 56 55 59 61 61 62 62 63 64 65 66
32 33 32 30 27 26 26 23 22 21 22 29 34 36 37 37 40 40 33 26 33 34 36 36 36 35 34 34 34 35 31 26 25 27 35 39 38 38 38 38 37 38 37 38 39 39 38 38 38 40 40 40 39 39 39 39 39 39 40 41 41 41 42 43 43 44 45 45 46 47 48 50 51 52 53 55 57 58 59 61 62 63 62 63 63 64
33 32 30 29 29 27 25 23 21 23 22 30 34 35 35 38 38 38 23 20 32 37 36 37 36 35 36 35 35 33 30 26 28 31 37 38 38 39 39 38 38 38 37 39 39 39 39 38 36 37 39 39 39 39 38 39 38 40 40 39 39 40 40 41 42 43 44 45 46 47 47 49 50 51 53 54 56 59 60 59 59 61 62 63 62 63
32 31 30 28 27 25 27 24 24 24 29 33 33 36 36 41 37 25 20 28 34 35 36 38 36 36 36 36 36 31 31 32 35 38 39 38 36 37 38 39 41 39 38 39 39 39 38 37 37 36 37 38 38 38 38 39 39 39 39 39 39 39 40 41 41 42 43 44 45 45 46 47 49 51 52 53 55 57 58 59 59 60 60 61 62 63
29 30 30 31 27 23 22 21 22 24 27 34 35 38 39 36 26 23 32 36 36 35 38 37 37 37 37 36 36 35 35 35 36 37 37 36 37 38 37 38 39 39 40 40 40 39 38 37 37 37 37 38 37 36 37 38 38 39 39 39 38 39 39 40 40 41 42 42 43 45 46 47 49 51 52 53 53 56 57 58 59 58 59 59 60 61
23 26 23 26 28 26 25 23 20 20 31 37 39 35 37 30 26 36 35 36 37 36 37 38 38 38 37 35 36 37 36 35 36 36 36 36 37 36 36 38 39 39 38 39 39 39 38 38 37 37 37 37 38 36 35 38 38 37 38 39 40 40 40 40 41 40 41 42 42 43 44 46 48 49 51 52 53 54 55 56 57 59 59 59 60 60
28 24 22 20 24 20 20 21 22 24 35 41 35 29 36 36 34 38 36 32 33 35 35 35 36 38 39 38 36 35 36 35 35 35 35 36 37 36 36 37 38 39 39 39 39 38 38 38 38 37 38 38 39 36 34 36 37 37 37 37 37 39 41 41 41 41 41 41 41 42 42 43 44 47 49 50 51 53 54 55 56 56 57 57 58 58
27 27 26 21 25 25 22 21 26 34 36 38 36 35 35 36 39 41 38 38 35 33 37 35 36 38 39 37 37 36 34 35 34 35 36 36 36 36 35 36 38 38 38 38 38 38 38 37 38 38 38 38 39 37 35 34 35 36 36 36 36 36 38 40 41 41 41 40 40 40 41 41 41 43 45 47 49 51 52 55 55 55 55 56 57 57
32 32 37 32 27 30 31 31 34 33 34 36 36 37 37 37 38 40 40 38 36 36 36 36 38 38 38 38 36 36 35 35 34 35 35 36 36 35 36 36 37 37 38 38 38 37 37 38 38 38 38 38 39 38 36 35 34 35 35 35 35 36 38 39 41 41 41 41 41 40 40 40 40 41 43 46 47 49 51 53 54 54 53 52 52 53
29 31 32 27 29 28 26 31 32 33 33 34 35 36 38 39 38 39 39 38 37 36 37 40 40 40 40 38 37 36 35 35 34 34 35 34 34 35 34 35 37 37 37 37 37 37 36 37 37 37 38 38 38 38 36 36 34 34 33 33 33 34 36 38 38 39 38 38 38 39 39 39 39 39 41 44 46 48 50 50 52 53 52 52 49 51
29 33 30 29 29 27 27 28 30 35 36 36 35 35 35 36 38 39 39 39 39 41 40 40 41 40 38 36 36 36 36 37 34 33 33 34 35 34 34 34 36 37 37 36 36 36 36 36 37 37 37 37 38 37 37 35 34 33 33 32 33 33 35 38 37 37 37 37 37 37 38 38 38 39 38 40 43 46 49 51 52 51 51 51 52 49
35 35 29 30 28 28 29 29 30 32 32 32 32 34 35 35 36 38 39 40 40 40 40 40 41 39 39 38 38 38 37 37 36 34 34 34 34 34 35 35 36 37 36 36 36 35 35 36 36 37 37 37 37 37 36 36 35 33 33 32 32 33 36 37 37 37 37 37 37 37 38 38 38 39 40 40 42 45 47 45 51 54 51 44 44 49
33 31 31 30 29 27 27 28 30 27 28 28 33 35 36 37 38 37 38 40 39 38 38 39 38 39 39 39 38 37 36 36 36 35 34 34 35 36 36 35 35 35 35 35 35 35 36 36 36 37 36 36 36 36 36 36 34 33 32 31 32 32 35 37 37 37 37 38 39 38 39 39 40 40 40 40 42 45 42 37 37 41 47 43 38 37
33 34 32 29 28 27 29 28 31 31 30 29 31 36 37 38 38 38 38 39 39 38 38 39 38 37 36 36 38 38 38 36 36 34 34 34 35 35 36 36 35 34 33 33 34 34 35 36 36 36 35 35 36 36 36 35 34 33 32 32 31 32 34 36 37 36 36 37 38 38 40 40 43 42 41 41 45 47 44 42 40 37 37 38 38 38